EZY575B EGPH-EGAC

Flight info

Callsign EZY575B
Flight time 0h 33m
Altitude 20000
Route GOSAM P600 BLACA DCT MAGEE
Aircraft A320/M-SDE2E3FGHIJ1RWXYZ/LB1

Departure

Time 2026-04-26 13:16
Airport Edinburgh Airport (EGPH)

Arrival

Time 2026-04-26 13:50
Airport George Best Belfast City Airport (EGAC)
Time Latitude Longitude Altitude Speed Heading
2026-04-26 12:54 55.94906 -3.36497 116 ft 0 kts 148°
2026-04-26 13:08 55.94909 -3.36500 143 ft 3 kts 148°
2026-04-26 13:08 55.94932 -3.36524 115 ft 4 kts 149°
2026-04-26 13:08 55.94955 -3.36538 112 ft 4 kts 197°
2026-04-26 13:09 55.94974 -3.36513 112 ft 3 kts 237°
2026-04-26 13:09 55.94976 -3.36508 113 ft 0 kts 238°
2026-04-26 13:11 55.94974 -3.36514 112 ft 5 kts 238°
2026-04-26 13:11 55.94926 -3.36654 115 ft 16 kts 238°
2026-04-26 13:11 55.94899 -3.36781 115 ft 9 kts 283°
2026-04-26 13:11 55.94924 -3.36871 115 ft 8 kts 274°
2026-04-26 13:12 55.94893 -3.36992 113 ft 12 kts 238°
2026-04-26 13:12 55.94843 -3.37139 114 ft 17 kts 239°
2026-04-26 13:12 55.94777 -3.37333 115 ft 19 kts 239°
2026-04-26 13:12 55.94706 -3.37541 113 ft 20 kts 238°
2026-04-26 13:13 55.94630 -3.37765 115 ft 22 kts 239°
2026-04-26 13:13 55.94548 -3.38006 114 ft 23 kts 239°
2026-04-26 13:13 55.94463 -3.38259 113 ft 25 kts 238°
2026-04-26 13:13 55.94374 -3.38522 113 ft 25 kts 239°
2026-04-26 13:14 55.94295 -3.38750 114 ft 18 kts 238°
2026-04-26 13:14 55.94311 -3.38889 113 ft 12 kts 321°
2026-04-26 13:14 55.94384 -3.38966 114 ft 13 kts 343°
2026-04-26 13:14 55.94444 -3.38887 114 ft 0 kts 58°
2026-04-26 13:15 55.94448 -3.38877 113 ft 9 kts 58°
2026-04-26 13:16 55.94747 -3.37992 114 ft 108 kts 59°
2026-04-26 13:16 55.95241 -3.36550 123 ft 160 kts 58°
2026-04-26 13:16 55.95838 -3.34787 661 ft 168 kts 58°
2026-04-26 13:16 55.96526 -3.33104 1390 ft 168 kts 43°
2026-04-26 13:17 55.98664 -3.32536 2642 ft 166 kts 325°
2026-04-26 13:17 55.99435 -3.34012 3217 ft 163 kts 290°
2026-04-26 13:18 55.99336 -3.38068 4083 ft 182 kts 245°
2026-04-26 13:18 55.98741 -3.40237 4346 ft 208 kts 242°
2026-04-26 13:18 55.97327 -3.45459 5223 ft 252 kts 246°
2026-04-26 13:19 55.96613 -3.48364 6057 ft 258 kts 246°
2026-04-26 13:19 55.95896 -3.51317 6936 ft 261 kts 246°
2026-04-26 13:19 55.95173 -3.54300 7822 ft 263 kts 246°
2026-04-26 13:19 55.94445 -3.57304 8720 ft 264 kts 246°
2026-04-26 13:20 55.93683 -3.60290 9639 ft 265 kts 242°
2026-04-26 13:20 55.92807 -3.63194 10489 ft 268 kts 240°
2026-04-26 13:20 55.91850 -3.66212 10784 ft 291 kts 239°
2026-04-26 13:20 55.90811 -3.69431 11234 ft 306 kts 239°
2026-04-26 13:21 55.89738 -3.72746 11915 ft 311 kts 240°
2026-04-26 13:21 55.89017 -3.74973 12408 ft 314 kts 240°
2026-04-26 13:21 55.87565 -3.79485 13362 ft 320 kts 240°
2026-04-26 13:21 55.86453 -3.82954 14069 ft 325 kts 240°
2026-04-26 13:22 55.85326 -3.86475 14691 ft 329 kts 240°
2026-04-26 13:22 55.84188 -3.90025 15345 ft 332 kts 240°
2026-04-26 13:22 55.83040 -3.93606 16005 ft 334 kts 240°
2026-04-26 13:22 55.81881 -3.97211 16681 ft 337 kts 240°
2026-04-26 13:23 55.80713 -4.00838 17354 ft 339 kts 240°
2026-04-26 13:23 55.79535 -4.04487 18004 ft 342 kts 240°
2026-04-26 13:23 55.78346 -4.08168 18637 ft 345 kts 240°
2026-04-26 13:23 55.77147 -4.11880 19177 ft 348 kts 240°
2026-04-26 13:24 55.75936 -4.15613 19723 ft 350 kts 240°
2026-04-26 13:24 55.74716 -4.19368 20159 ft 353 kts 240°
2026-04-26 13:24 55.73490 -4.23129 20267 ft 349 kts 240°
2026-04-26 13:24 55.72275 -4.26749 20293 ft 336 kts 236°
2026-04-26 13:25 55.70772 -4.29879 20283 ft 333 kts 224°
2026-04-26 13:25 55.68936 -4.32401 20292 ft 335 kts 217°
2026-04-26 13:25 55.66981 -4.34669 20292 ft 336 kts 214°
2026-04-26 13:25 55.64984 -4.36821 20291 ft 336 kts 213°
2026-04-26 13:26 55.62964 -4.38918 20288 ft 337 kts 212°
2026-04-26 13:26 55.60937 -4.41000 20287 ft 337 kts 212°
2026-04-26 13:26 55.58914 -4.43082 20285 ft 337 kts 213°
2026-04-26 13:26 55.56894 -4.45174 20278 ft 336 kts 213°
2026-04-26 13:27 55.54880 -4.47276 20288 ft 337 kts 213°
2026-04-26 13:27 55.52865 -4.49391 20275 ft 337 kts 213°
2026-04-26 13:27 55.50878 -4.51476 20274 ft 337 kts 213°
2026-04-26 13:27 55.48834 -4.53618 20275 ft 337 kts 213°
2026-04-26 13:28 55.46845 -4.55702 20274 ft 337 kts 213°
2026-04-26 13:28 55.44827 -4.57816 20274 ft 337 kts 213°
2026-04-26 13:28 55.42810 -4.59925 20261 ft 337 kts 213°
2026-04-26 13:28 55.40790 -4.62033 20262 ft 338 kts 213°
2026-04-26 13:29 55.39450 -4.63427 20263 ft 338 kts 213°
2026-04-26 13:29 55.37399 -4.65561 20269 ft 338 kts 213°
2026-04-26 13:29 55.35373 -4.67667 20273 ft 338 kts 213°
2026-04-26 13:29 55.33345 -4.69775 20290 ft 339 kts 213°
2026-04-26 13:30 55.31347 -4.71850 20283 ft 339 kts 213°
2026-04-26 13:30 55.29317 -4.73955 20287 ft 339 kts 213°
2026-04-26 13:30 55.27287 -4.76054 20291 ft 339 kts 213°
2026-04-26 13:30 55.25256 -4.78152 20293 ft 339 kts 213°
2026-04-26 13:31 55.23224 -4.80252 20294 ft 339 kts 213°
2026-04-26 13:31 55.21203 -4.82367 20295 ft 338 kts 216°
2026-04-26 13:31 55.19295 -4.84762 20300 ft 338 kts 219°
2026-04-26 13:31 55.17419 -4.87235 20301 ft 337 kts 219°
2026-04-26 13:32 55.15567 -4.89728 20143 ft 333 kts 220°
2026-04-26 13:32 55.13755 -4.92176 19895 ft 326 kts 220°
2026-04-26 13:32 55.11982 -4.94568 19661 ft 320 kts 220°
2026-04-26 13:32 55.10223 -4.96931 19419 ft 318 kts 220°
2026-04-26 13:33 55.08469 -4.99275 19187 ft 317 kts 220°
2026-04-26 13:33 55.06716 -5.01610 18946 ft 316 kts 220°
2026-04-26 13:33 55.04969 -5.03927 18704 ft 315 kts 219°
2026-04-26 13:33 55.03222 -5.06235 18462 ft 314 kts 219°
2026-04-26 13:34 55.01482 -5.08529 18186 ft 313 kts 219°
2026-04-26 13:34 54.99749 -5.10815 17918 ft 312 kts 219°
2026-04-26 13:34 54.98024 -5.13088 17652 ft 311 kts 219°
2026-04-26 13:34 54.96883 -5.14590 17477 ft 310 kts 219°
2026-04-26 13:35 54.94591 -5.17610 17084 ft 308 kts 219°
2026-04-26 13:35 54.92886 -5.19856 16715 ft 307 kts 219°
2026-04-26 13:35 54.91187 -5.22087 16399 ft 305 kts 219°
2026-04-26 13:35 54.89497 -5.24298 16087 ft 303 kts 219°
2026-04-26 13:36 54.87838 -5.26472 15776 ft 303 kts 219°
2026-04-26 13:36 54.86160 -5.28670 15484 ft 301 kts 219°
2026-04-26 13:36 54.84492 -5.30857 15190 ft 300 kts 218°
2026-04-26 13:36 54.82826 -5.33034 14900 ft 299 kts 218°
2026-04-26 13:37 54.81168 -5.35196 14602 ft 298 kts 218°
2026-04-26 13:37 54.79515 -5.37350 14317 ft 296 kts 218°
2026-04-26 13:37 54.77872 -5.39488 14028 ft 295 kts 218°
2026-04-26 13:37 54.76234 -5.41618 13702 ft 293 kts 218°
2026-04-26 13:38 54.74607 -5.43734 13391 ft 292 kts 218°
2026-04-26 13:38 54.72987 -5.45836 13079 ft 290 kts 218°
2026-04-26 13:38 54.71380 -5.47921 12770 ft 288 kts 218°
2026-04-26 13:38 54.69777 -5.49998 12448 ft 287 kts 218°
2026-04-26 13:39 54.68186 -5.52056 12145 ft 285 kts 218°
2026-04-26 13:39 54.66607 -5.54101 11845 ft 283 kts 218°
2026-04-26 13:39 54.65034 -5.56132 11539 ft 281 kts 218°
2026-04-26 13:39 54.63470 -5.58146 11242 ft 279 kts 218°
2026-04-26 13:40 54.61921 -5.60142 10938 ft 277 kts 217°
2026-04-26 13:40 54.60384 -5.62124 10647 ft 275 kts 217°
2026-04-26 13:40 54.58858 -5.64092 10346 ft 273 kts 217°
2026-04-26 13:40 54.57340 -5.66044 10047 ft 271 kts 217°
2026-04-26 13:41 54.55832 -5.67982 9720 ft 270 kts 217°
2026-04-26 13:41 54.54329 -5.69914 9407 ft 269 kts 217°
2026-04-26 13:41 54.52832 -5.71837 9093 ft 268 kts 217°
2026-04-26 13:41 54.51340 -5.73750 8781 ft 267 kts 217°
2026-04-26 13:42 54.49849 -5.75657 8474 ft 266 kts 217°
2026-04-26 13:42 54.48362 -5.77553 8166 ft 266 kts 217°
2026-04-26 13:42 54.46878 -5.79440 7861 ft 265 kts 217°
2026-04-26 13:42 54.45399 -5.81320 7556 ft 264 kts 217°
2026-04-26 13:43 54.43931 -5.83220 7260 ft 263 kts 220°
2026-04-26 13:43 54.42705 -5.85534 6967 ft 263 kts 235°
2026-04-26 13:43 54.41799 -5.88235 6673 ft 259 kts 240°
2026-04-26 13:43 54.40934 -5.90905 6360 ft 254 kts 240°
2026-04-26 13:44 54.40078 -5.93527 6052 ft 250 kts 240°
2026-04-26 13:44 54.39383 -5.96215 5742 ft 244 kts 258°
2026-04-26 13:44 54.39399 -5.99056 5433 ft 237 kts 284°
2026-04-26 13:44 54.40064 -6.01591 5138 ft 231 kts 298°
2026-04-26 13:45 54.40845 -6.04007 4834 ft 231 kts 298°
2026-04-26 13:45 54.41667 -6.06380 4519 ft 232 kts 309°
2026-04-26 13:45 54.42992 -6.07865 4207 ft 231 kts 346°
2026-04-26 13:45 54.44563 -6.07707 3927 ft 230 kts 22°
2026-04-26 13:46 54.45868 -6.06143 3652 ft 230 kts 38°
2026-04-26 13:46 54.47139 -6.04491 3379 ft 228 kts 34°
2026-04-26 13:46 54.48471 -6.03020 3088 ft 227 kts 31°
2026-04-26 13:46 54.49766 -6.01579 2791 ft 215 kts 33°
2026-04-26 13:47 54.50962 -6.00177 2524 ft 199 kts 33°
2026-04-26 13:47 54.52058 -5.98876 2260 ft 183 kts 33°
2026-04-26 13:47 54.53046 -5.97701 2017 ft 164 kts 33°
2026-04-26 13:47 54.53932 -5.96647 1783 ft 151 kts 33°
2026-04-26 13:48 54.54782 -5.95636 1588 ft 147 kts 33°
2026-04-26 13:48 54.55613 -5.94648 1391 ft 144 kts 33°
2026-04-26 13:48 54.56433 -5.93670 1194 ft 143 kts 34°
2026-04-26 13:48 54.57242 -5.92705 1009 ft 140 kts 34°
2026-04-26 13:49 54.58040 -5.91780 831 ft 137 kts 33°
2026-04-26 13:49 54.58816 -5.90859 637 ft 134 kts 34°
2026-04-26 13:49 54.59568 -5.89943 467 ft 131 kts 34°
2026-04-26 13:49 54.60318 -5.89059 297 ft 130 kts 34°
2026-04-26 13:50 54.61054 -5.88153 99 ft 129 kts 35°
2026-04-26 13:50 54.61769 -5.87306 20 ft 112 kts 38°
2026-04-26 13:50 54.62176 -5.86820 18 ft 41 kts 34°
2026-04-26 13:50 54.62369 -5.86587 22 ft 17 kts 33°
2026-04-26 13:51 54.62473 -5.86525 20 ft 16 kts 41°
2026-04-26 13:51 54.62420 -5.86471 21 ft 14 kts 233°
2026-04-26 13:51 54.62364 -5.86580 22 ft 11 kts 219°
2026-04-26 13:51 54.62276 -5.86689 20 ft 17 kts 214°
2026-04-26 13:52 54.62176 -5.86808 18 ft 22 kts 214°
2026-04-26 13:52 54.62039 -5.86974 17 ft 24 kts 215°
2026-04-26 13:52 54.61906 -5.87132 18 ft 21 kts 214°
2026-04-26 13:52 54.61812 -5.87117 17 ft 14 kts 127°
2026-04-26 13:53 54.61764 -5.87007 21 ft 9 kts 138°
2026-04-26 13:53 54.61707 -5.87012 22 ft 11 kts 209°
2026-04-26 13:53 54.61643 -5.87089 21 ft 11 kts 216°
2026-04-26 13:53 54.61583 -5.87161 21 ft 10 kts 214°
2026-04-26 13:54 54.61525 -5.87166 22 ft 8 kts 158°
2026-04-26 13:54 54.61501 -5.87146 23 ft 1 kts 155°
2026-04-26 13:54 54.61499 -5.87145 23 ft 0 kts 155°